Location: Muck Cross
(36.7179°N, 78.3678°W)
Time: 12:24:57
(UTC+00:00)

Tiros 1 despin weight - All Passes

Search period start: 30 March 2023 00:00
Search period end: 09 April 2023 00:00
Orbit: 588 x 634 km, 48.2° (Epoch: 29 March)

Date Brightness Start Highest point End Pass type
(mag) Time Alt. Az. Time Alt. Az. Time Alt. Az.
30 Mar - 01:06:57 10° W 01:10:55 33° NNW 01:14:54 10° NE visible
30 Mar - 02:50:13 10° NW 02:53:18 18° N 02:56:23 10° NE visible
30 Mar - 04:32:06 10° NW 04:35:48 25° NNE 04:39:32 10° ENE night (unlit)
30 Mar - 06:13:10 10° NW 06:17:38 88° NE 06:22:09 10° SE night (unlit)
30 Mar - 07:56:00 10° W 07:58:32 15° SW 08:01:05 10° SSW night (unlit)
30 Mar - 21:59:51 10° S 22:02:36 16° SE 22:05:20 10° E daylight
30 Mar - 23:39:09 10° WSW 23:43:32 79° NNW 23:47:54 10° NE daylight
31 Mar - 01:21:50 10° WNW 01:25:24 24° NNW 01:29:00 10° NE visible
31 Mar - 03:04:50 10° NW 03:07:56 18° N 03:11:04 10° NE visible
31 Mar - 04:46:11 10° NW 04:50:16 36° NNE 04:54:24 10° E night (unlit)
31 Mar - 06:27:28 10° WNW 06:31:45 48° SW 06:36:05 10° SSE night (unlit)
31 Mar - 22:12:36 10° SSW 22:16:31 32° SE 22:20:26 10° ENE daylight
31 Mar - 23:53:36 10° WSW 23:57:48 45° NNW 00:02:01 10° NE visible
01 Apr - 01:36:47 10° NW 01:39:59 19° N 01:43:12 10° NE visible
01 Apr - 03:19:09 10° NW 03:22:33 21° NNE 03:25:58 10° ENE visible
01 Apr - 05:00:14 10° NW 05:04:37 58° NNE 05:09:01 10° ESE night (unlit)
01 Apr - 06:42:07 10° W 06:45:45 25° SW 06:49:24 10° S night (unlit)
01 Apr - 22:26:13 10° SW 22:30:33 65° SE 22:34:53 10° ENE daylight
02 Apr - 00:08:20 10° W 00:12:11 30° NNW 00:16:04 10° NE visible
02 Apr - 01:51:34 10° NW 01:54:36 18° N 01:57:39 10° NE visible
02 Apr - 03:33:17 10° NW 03:37:04 27° NNE 03:40:53 10° ENE visible
02 Apr - 05:14:23 10° WNW 05:18:48 79° SW 05:23:16 10° SE night (unlit)
02 Apr - 06:57:54 10° WSW 06:59:38 12° SW 07:01:21 10° SSW night (unlit)
02 Apr - 21:00:30 10° S 21:03:41 20° SE 21:06:52 10° E daylight
02 Apr - 22:40:21 10° WSW 22:44:42 67° NNW 22:49:04 10° NE daylight
03 Apr - 00:23:13 10° WNW 00:26:41 22° NNW 00:30:08 10° NE visible
03 Apr - 02:06:05 10° NW 02:09:13 19° N 02:12:23 10° NE visible
03 Apr - 03:47:19 10° NW 03:51:29 40° NNE 03:55:40 10° E visible
03 Apr - 05:28:43 10° WNW 05:32:52 40° SW 05:37:03 10° SSE night (unlit)
03 Apr - 21:13:32 10° SSW 21:17:37 39° SE 21:21:42 10° ENE daylight
03 Apr - 22:54:51 10° W 22:58:59 40° NNW 23:03:07 10° NE daylight
04 Apr - 00:38:07 10° NW 00:41:14 19° N 00:44:22 10° NE visible
04 Apr - 02:20:19 10° NW 02:23:47 22° NNE 02:27:16 10° ENE visible
04 Apr - 04:01:22 10° NW 04:05:46 67° NNE 04:10:11 10° ESE visible
04 Apr - 05:43:31 10° W 05:46:48 20° SW 05:50:06 10° S night (unlit)
04 Apr - 19:49:24 10° SSE 19:50:52 11° SE 19:52:21 10° ESE daylight
04 Apr - 21:27:16 10° SW 21:31:39 78° SE 21:36:02 10° ENE daylight
04 Apr - 23:09:37 10° WNW 23:13:23 27° NNW 23:17:08 10° NE daylight
05 Apr - 00:52:49 10° NW 00:55:50 18° N 00:58:52 10° NE visible
05 Apr - 02:34:22 10° NW 02:38:16 30° NNE 02:42:09 10° E visible
05 Apr - 04:15:31 10° WNW 04:19:53 66° SW 04:24:18 10° SE night (unlit)
05 Apr - 20:01:10 10° S 20:04:42 24° SE 20:08:13 10° E daylight
05 Apr - 21:41:29 10° WSW 21:45:49 58° NNW 21:50:08 10° NE daylight
05 Apr - 23:24:31 10° WNW 23:27:52 21° NNW 23:31:13 10° NE daylight
06 Apr - 01:07:13 10° NW 01:10:25 19° N 01:13:38 10° NE visible
06 Apr - 02:48:23 10° NW 02:52:36 45° NNE 02:56:51 10° ESE visible
06 Apr - 04:29:56 10° WNW 04:33:53 33° SW 04:37:54 10° SSE night (unlit)
06 Apr - 20:14:25 10° SSW 20:18:38 47° SE 20:22:51 10° ENE daylight
06 Apr - 21:56:03 10° W 22:00:06 35° NNW 22:04:09 10° NE daylight
06 Apr - 23:39:21 10° NW 23:42:25 18° N 23:45:30 10° NE daylight
07 Apr - 01:21:23 10° NW 01:24:56 24° NNE 01:28:30 10° ENE visible
07 Apr - 03:02:25 10° NW 03:06:49 78° NE 03:11:15 10° ESE visible
07 Apr - 04:44:56 10° W 04:47:46 17° SW 04:50:38 10° S night (unlit)
07 Apr - 18:49:27 10° SSE 18:51:49 14° SE 18:54:10 10° E daylight
07 Apr - 20:28:16 10° SW 20:32:41 89° NNW 20:37:05 10° NE daylight
07 Apr - 22:10:50 10° WNW 22:14:30 25° NNW 22:18:09 10° NE daylight
07 Apr - 23:53:57 10° NW 23:56:59 18° N 00:00:02 10° NE daylight
08 Apr - 01:35:23 10° NW 01:39:21 32° NNE 01:43:20 10° E visible
08 Apr - 03:16:36 10° WNW 03:20:53 55° SW 03:25:12 10° SE visible
08 Apr - 19:01:50 10° SSW 19:05:39 28° SE 19:09:26 10° ENE daylight
08 Apr - 20:42:34 10° WSW 20:46:51 50° NNW 20:51:08 10° NE daylight
08 Apr - 22:25:42 10° WNW 22:28:58 20° N 22:32:15 10° NE daylight
